TimeEDT,TemperatureF,Dew PointF,Humidity,Sea Level PressureIn,VisibilityMPH,Wind Direction,Wind SpeedMPH,Gust SpeedMPH,PrecipitationIn,Events,Conditions,WindDirDegrees,DateUTC
12:08 AM,44.6,39.2,81,29.85,10.0,West,12.7,18.4,N/A,,Overcast,280,2011-10-01 04:08:00
12:37 AM,42.8,39.2,87,29.85,10.0,NW,9.2,-,N/A,,Overcast,310,2011-10-01 04:37:00
12:51 AM,43.0,39.0,86,29.88,10.0,WNW,8.1,-,N/A,,Overcast,290,2011-10-01 04:51:00
1:51 AM,43.0,39.0,86,29.88,10.0,NW,8.1,-,0.00,,Overcast,310,2011-10-01 05:51:00
2:30 AM,42.8,37.4,81,29.86,10.0,Variable,4.6,-,0.00,Rain,Light Rain,0,2011-10-01 06:30:00
2:51 AM,42.1,37.9,85,29.88,10.0,West,4.6,-,0.00,Rain,Light Rain,280,2011-10-01 06:51:00
3:22 AM,42.8,37.4,81,29.85,10.0,West,5.8,-,0.00,,Overcast,270,2011-10-01 07:22:00
3:51 AM,41.0,37.0,86,29.88,10.0,West,4.6,-,0.00,,Overcast,280,2011-10-01 07:51:00
4:09 AM,41.0,37.4,87,29.85,10.0,West,5.8,-,N/A,,Overcast,270,2011-10-01 08:09:00
4:16 AM,39.2,37.4,93,29.85,10.0,West,6.9,-,N/A,,Overcast,280,2011-10-01 08:16:00
4:51 AM,39.0,36.0,89,29.88,10.0,Calm,Calm,-,N/A,,Mostly Cloudy,0,2011-10-01 08:51:00
5:08 AM,39.2,35.6,87,29.86,10.0,NW,3.5,-,N/A,,Mostly Cloudy,310,2011-10-01 09:08:00
5:15 AM,41.0,35.6,81,29.86,10.0,Calm,Calm,-,N/A,,Overcast,0,2011-10-01 09:15:00
5:51 AM,39.9,36.0,86,29.90,10.0,NW,8.1,-,N/A,,Overcast,310,2011-10-01 09:51:00
6:51 AM,39.9,34.0,79,29.91,10.0,WNW,6.9,-,N/A,,Overcast,290,2011-10-01 10:51:00
7:51 AM,39.9,35.1,83,29.92,10.0,West,5.8,-,N/A,,Overcast,280,2011-10-01 11:51:00
8:39 AM,39.2,35.6,87,29.90,10.0,West,4.6,-,N/A,,Overcast,270,2011-10-01 12:39:00
8:51 AM,41.0,35.1,79,29.94,10.0,WNW,6.9,-,N/A,,Overcast,290,2011-10-01 12:51:00
9:29 AM,41.0,35.6,81,29.91,10.0,West,4.6,-,N/A,,Overcast,280,2011-10-01 13:29:00
9:51 AM,41.0,34.0,76,29.95,10.0,WNW,6.9,-,N/A,,Overcast,300,2011-10-01 13:51:00
10:37 AM,41.0,35.6,81,29.93,10.0,West,8.1,-,N/A,,Overcast,280,2011-10-01 14:37:00
10:51 AM,41.0,35.1,79,29.97,10.0,NW,8.1,-,N/A,,Overcast,310,2011-10-01 14:51:00
11:02 AM,41.0,35.6,81,29.93,10.0,West,5.8,-,N/A,,Overcast,270,2011-10-01 15:02:00
11:38 AM,41.0,35.6,81,29.93,10.0,NW,4.6,-,N/A,,Overcast,310,2011-10-01 15:38:00
11:51 AM,41.0,36.0,82,29.98,10.0,West,6.9,-,N/A,,Overcast,280,2011-10-01 15:51:00
12:04 PM,41.0,35.6,81,29.93,10.0,West,8.1,-,N/A,,Overcast,260,2011-10-01 16:04:00
12:51 PM,41.0,37.0,86,29.98,10.0,NW,5.8,-,N/A,,Overcast,320,2011-10-01 16:51:00
1:10 PM,42.8,37.4,81,29.93,10.0,Variable,5.8,-,N/A,,Overcast,0,2011-10-01 17:10:00
1:51 PM,41.0,37.9,89,29.97,10.0,WNW,4.6,-,N/A,,Overcast,290,2011-10-01 17:51:00
2:38 PM,42.8,37.4,81,29.93,10.0,Calm,Calm,-,0.01,Rain,Light Rain,0,2011-10-01 18:38:00
2:51 PM,42.1,37.9,85,29.97,9.0,West,3.5,-,0.01,Rain,Light Rain,270,2011-10-01 18:51:00
3:51 PM,41.0,37.9,89,29.99,7.0,WNW,5.8,-,0.03,Rain,Light Rain,300,2011-10-01 19:51:00
4:51 PM,41.0,37.0,86,29.99,6.0,Calm,Calm,-,0.04,Rain,Light Rain,0,2011-10-01 20:51:00
5:51 PM,39.0,37.0,93,29.99,7.0,South,4.6,-,0.07,Rain,Light Rain,180,2011-10-01 21:51:00
6:49 PM,37.4,35.6,93,29.95,7.0,SSE,4.6,-,0.06,Rain,Light Rain,150,2011-10-01 22:49:00
6:51 PM,37.9,36.0,93,30.00,7.0,SE,3.5,-,0.06,Rain,Light Rain,140,2011-10-01 22:51:00
7:25 PM,37.4,37.4,100,29.95,6.0,Variable,3.5,-,0.05,Rain,Rain,0,2011-10-01 23:25:00
7:51 PM,39.0,37.0,93,30.00,6.0,Calm,Calm,-,0.09,Rain,Rain,0,2011-10-01 23:51:00
8:49 PM,39.2,39.2,100,29.95,4.0,Calm,Calm,-,0.06,Rain,Rain,0,2011-10-02 00:49:00
8:51 PM,39.9,39.0,97,30.00,4.0,Calm,Calm,-,0.06,Rain,Rain,0,2011-10-02 00:51:00
9:21 PM,39.2,39.2,100,29.95,4.0,Calm,Calm,-,0.04,Rain,Rain,0,2011-10-02 01:21:00
9:30 PM,42.8,39.2,87,29.95,6.0,NW,4.6,-,0.05,Rain,Light Rain,320,2011-10-02 01:30:00
9:51 PM,43.0,41.0,93,29.99,3.0,NW,11.5,-,0.06,Rain,Light Rain,310,2011-10-02 01:51:00
9:59 PM,42.8,41.0,93,29.95,4.0,NW,11.5,20.7,0.01,Rain,Light Rain,310,2011-10-02 01:59:00
10:36 PM,42.8,41.0,93,29.96,7.0,NNW,6.9,-,0.03,Rain,Light Rain,330,2011-10-02 02:36:00
10:51 PM,43.0,39.9,89,30.00,5.0,Variable,6.9,-,0.04,Rain,Light Rain,0,2011-10-02 02:51:00
10:59 PM,42.8,39.2,87,29.96,5.0,NW,11.5,19.6,0.00,Rain,Light Rain,320,2011-10-02 02:59:00
11:44 PM,42.8,39.2,87,29.96,5.0,NNW,9.2,19.6,0.04,Rain,Light Rain,340,2011-10-02 03:44:00
11:51 PM,42.1,39.0,89,30.01,5.0,North,11.5,17.3,0.05,Rain,Light Rain,350,2011-10-02 03:51:00